Wind_Speed
20 21 21 19 16 14 13 14 15 15 15 15 13 14 15 14 14 14 14 14 15 15 14 12 12 11 12 13 14 15 15 15 14 14 15 17 17 16 16 17 16 17 16 15 15 14 14 15 14 13 12 11 12 11 10 9 9 9 9 9 9 9 10
20 20 20 20 18 16 12 13 16 18 18 18 17 18 18 17 16 15 15 16 17 17 16 14 12 12 12 13 15 15 16 16 16 16 16 17 18 18 18 18 17 17 18 17 16 14 15 16 16 15 13 13 13 12 11 10 10 9 9 9 9 10 11
20 18 17 17 16 15 13 12 16 19 21 21 21 21 20 19 17 16 18 18 19 19 17 14 12 12 13 14 14 14 16 17 17 17 17 18 20 20 19 19 19 19 19 18 17 15 16 17 18 16 15 15 14 13 11 11 11 10 9 9 10 11 13
22 20 19 18 17 17 16 15 16 18 21 23 23 23 22 21 20 19 20 20 20 20 18 15 15 15 15 14 14 14 15 17 18 18 19 20 21 21 20 20 20 20 20 20 19 18 17 18 18 18 17 16 16 14 13 12 12 11 10 10 10 11 14
21 23 22 22 21 21 20 18 16 16 20 22 24 25 23 23 23 22 22 22 22 21 19 18 17 15 14 13 13 14 16 17 19 20 20 21 23 23 21 21 21 22 22 22 21 19 18 18 18 19 19 18 18 16 14 13 13 11 10 10 11 12 14
19 22 23 22 22 22 20 17 16 17 20 22 24 25 24 25 26 24 24 24 23 22 21 19 16 14 14 13 14 15 15 16 18 19 21 22 23 23 22 22 23 23 23 24 23 21 20 19 19 20 20 20 19 17 16 15 13 12 11 11 11 13 15
19 19 19 18 18 19 18 15 15 17 19 23 25 26 26 27 27 26 26 25 24 23 22 19 16 15 14 14 14 14 13 14 16 18 20 21 22 23 23 24 24 24 25 25 24 22 21 20 20 21 21 21 20 19 17 16 14 12 11 11 12 14 15
21 20 18 16 15 16 16 13 12 15 18 23 26 27 27 27 27 26 26 25 24 24 22 19 16 15 16 15 14 13 13 13 14 15 17 19 21 23 24 25 25 26 26 26 25 24 22 21 21 21 21 21 21 20 19 17 15 12 12 12 13 14 14
23 23 22 19 18 17 16 12 12 13 16 21 26 27 27 26 25 26 25 25 25 24 22 19 17 17 17 16 13 12 13 13 13 14 15 17 18 20 23 25 27 28 28 27 26 25 23 22 22 21 21 21 21 21 20 18 16 13 13 13 14 13 14
25 26 26 24 21 21 19 16 14 15 15 19 23 26 26 25 25 26 26 25 24 23 22 21 20 19 18 15 13 13 13 12 12 13 14 15 16 17 20 23 26 29 29 29 28 26 24 24 23 22 21 21 22 21 20 19 17 15 14 14 13 13 14
26 27 27 26 24 24 24 20 17 16 14 14 17 20 22 23 24 25 25 25 23 22 22 23 22 20 18 15 14 13 12 12 12 11 12 13 14 14 16 19 23 27 29 30 29 27 25 24 23 22 21 22 22 22 22 21 19 16 16 15 14 13 14
26 28 28 26 25 25 25 22 19 17 15 13 13 15 18 21 23 24 24 24 23 22 23 24 23 20 18 16 15 13 12 11 10 10 11 13 14 15 15 17 20 23 26 27 27 27 26 25 24 22 22 23 23 23 23 21 19 18 17 16 14 14 15
24 27 28 28 26 26 25 23 22 20 16 14 13 14 17 19 21 23 23 23 22 22 24 25 23 20 18 17 15 13 11 10 10 11 13 15 16 17 17 17 18 21 23 24 25 26 26 25 24 23 23 25 25 24 23 21 19 19 18 17 16 16 16
21 25 28 28 28 27 26 24 24 22 18 16 15 15 17 19 20 21 22 21 21 21 23 23 23 20 18 18 16 13 11 11 11 13 15 17 18 19 19 19 19 20 22 24 25 27 27 26 25 25 25 26 26 24 23 21 20 20 19 19 18 18 17
20 23 27 28 28 28 26 25 25 23 21 19 18 17 17 18 19 20 21 21 21 20 20 21 21 19 18 18 16 13 13 14 14 14 16 18 19 19 19 20 21 22 23 24 25 28 28 27 27 27 27 27 26 24 22 20 20 21 21 21 20 20 19
21 23 26 27 29 28 25 25 26 25 24 24 22 19 17 16 18 19 21 21 21 20 18 19 18 17 17 16 15 14 15 17 16 16 17 19 20 21 21 20 21 23 24 24 25 27 29 30 28 27 27 27 26 24 22 21 21 22 23 23 22 21 21
24 24 25 27 29 29 27 27 28 28 28 27 24 21 18 17 18 21 23 23 23 21 19 18 17 16 15 14 13 14 16 17 18 19 19 20 21 23 24 23 23 23 25 25 25 26 28 30 30 28 28 28 27 25 23 22 23 24 24 24 23 23 22
26 26 25 26 28 29 28 28 29 29 30 28 26 24 21 19 20 22 25 25 25 23 21 20 18 16 15 15 16 16 15 16 18 19 20 22 23 24 26 27 26 24 25 25 26 27 29 30 30 30 30 30 28 26 25 24 24 25 25 25 24 24 23
28 28 27 27 28 28 27 27 29 30 29 28 27 26 23 21 21 21 22 24 26 26 24 22 21 19 18 19 20 18 16 17 18 19 20 22 24 26 28 29 28 27 26 26 26 27 28 29 30 31 32 31 29 28 27 26 26 26 26 26 25 25 25
31 31 30 29 29 27 26 27 28 30 30 29 29 27 23 21 20 20 21 24 26 28 28 27 25 23 21 22 23 21 20 20 19 19 20 23 26 28 29 29 29 29 28 28 28 26 26 28 30 31 32 32 31 30 29 28 28 27 27 27 26 26 26
33 32 32 31 30 28 26 27 28 29 30 30 30 28 25 22 22 23 24 25 26 28 29 27 26 25 24 25 25 24 23 22 21 20 21 24 27 30 31 30 29 30 29 29 29 27 26 28 29 30 32 33 32 31 31 30 29 29 28 28 27 27 28
36 34 33 32 31 30 28 28 29 29 29 30 32 32 29 27 27 26 26 26 28 29 27 24 24 26 27 28 27 27 26 24 23 22 22 24 25 28 31 30 29 29 29 29 29 28 27 27 27 28 31 34 34 34 33 32 31 30 29 29 29 30 29
38 36 34 33 33 32 30 30 30 31 31 31 33 34 32 31 30 28 27 27 28 29 26 24 25 26 28 30 29 29 28 27 26 26 26 27 27 27 28 29 28 29 30 30 30 29 28 27 27 29 31 34 35 34 33 32 32 32 31 31 32 33 31
38 37 36 35 34 34 34 32 31 32 33 33 34 35 34 33 32 31 29 28 28 29 28 27 27 27 30 32 32 30 29 29 30 31 30 31 32 30 29 29 29 29 31 31 31 31 30 29 29 30 31 33 35 35 34 33 34 34 34 34 35 35 33
38 38 37 37 36 36 37 35 34 35 35 36 37 37 36 34 33 33 33 32 31 31 30 29 29 29 31 32 31 32 32 33 35 34 33 34 36 34 31 30 29 31 32 33 33 33 32 31 30 31 32 33 35 37 36 35 35 36 36 37 38 37 34
39 38 38 38 38 38 39 39 38 38 38 38 39 38 38 37 35 34 34 35 35 34 33 32 30 30 30 32 33 36 37 38 39 38 37 37 38 38 35 32 31 33 34 35 36 35 35 33 31 31 33 34 37 39 39 37 37 38 39 40 40 39 36
40 40 40 40 39 40 41 41 41 40 40 40 39 38 39 39 38 36 36 37 37 36 35 34 33 32 34 36 38 40 41 41 41 41 40 39 38 39 36 33 33 35 37 38 39 38 37 36 34 33 34 35 37 39 39 38 38 40 42 43 43 41 38
41 42 43 43 42 42 43 43 44 44 42 41 41 41 41 42 41 41 40 40 38 37 36 36 36 37 37 39 41 42 41 40 42 43 42 40 40 40 37 35 36 37 39 41 41 40 39 39 37 36 36 37 38 38 38 39 41 43 45 46 45 42 39
41 42 44 45 45 45 45 46 47 47 46 44 43 44 44 44 44 44 44 43 42 40 39 39 40 40 40 40 41 42 41 40 42 44 45 43 43 43 40 37 39 40 41 43 43 41 41 41 41 40 39 40 40 38 38 40 43 45 47 47 46 44 42
41 43 44 45 46 46 46 47 48 49 48 47 46 46 45 45 46 46 46 45 45 45 44 44 43 44 44 43 44 45 44 43 43 46 47 45 45 45 44 42 41 42 43 44 44 42 43 46 46 44 42 43 43 41 40 42 44 47 49 49 47 46 45
43 43 44 45 46 47 47 48 50 50 50 49 49 48 47 45 45 46 46 47 47 47 48 48 48 48 48 47 45 45 45 44 44 45 46 47 47 48 48 47 46 45 45 44 44 43 44 47 49 47 45 45 45 44 43 44 46 50 52 51 49 49 48
45 44 44 44 45 45 47 48 49 50 51 51 51 50 49 48 47 48 49 49 50 50 50 50 50 48 46 44 43 42 43 44 45 45 47 49 49 49 50 50 50 50 48 46 46 45 45 48 51 51 50 49 47 47 49 49 50 53 55 54 52 51 50
46 46 45 44 43 43 44 44 46 48 50 51 51 50 49 48 47 47 48 48 48 48 47 46 45 44 42 41 41 42 43 45 45 46 47 50 51 51 52 52 52 52 50 49 49 50 50 51 52 52 54 52 50 51 54 55 56 58 57 56 55 55 54
46 46 45 43 42 41 41 42 43 46 47 47 46 44 43 42 42 43 43 44 44 44 44 43 43 43 43 44 44 46 47 48 49 49 49 50 52 53 54 55 55 55 53 53 53 54 53 54 54 54 55 55 53 53 56 59 61 61 60 59 58 58 58
47 46 44 43 43 43 42 42 42 45 45 43 42 41 40 41 41 42 42 43 44 45 45 46 46 47 47 48 49 50 51 51 51 52 53 53 55 56 57 57 58 59 58 57 57 57 56 57 57 57 57 58 57 56 58 63 66 65 63 63 62 62 63
51 48 46 46 46 46 45 43 42 43 44 43 43 43 43 43 44 44 45 46 46 47 47 48 48 49 50 51 52 53 53 53 53 54 54 56 58 59 60 60 61 62 62 61 61 60 60 60 61 61 61 62 60 59 63 68 70 68 67 67 65 63 64
54 52 52 52 50 49 48 46 43 42 43 44 45 46 47 47 48 48 49 49 49 49 49 50 50 50 51 52 53 54 54 53 53 54 57 59 61 62 63 64 64 65 65 65 65 65 64 63 64 64 64 62 60 64 70 71 68 66 66 65 66 67 65
56 55 56 56 54 52 50 48 45 43 43 44 45 47 48 49 50 52 53 53 52 51 51 51 52 52 53 54 54 55 54 52 53 55 58 60 62 64 66 67 67 68 68 68 68 68 67 66 65 65 65 64 64 69 74 72 67 67 68 65 63 65 66
Wind_Direction
183 185 187 189 191 203 224 229 221 217 224 228 223 223 230 235 238 238 238 235 233 235 236 235 232 229 228 229 232 236 240 244 247 248 248 249 250 247 244 243 242 244 248 252 254 263 274 278 278 279 276 263 251 248 249 250 258 275 292 300 300 295 293
195 196 195 197 196 194 206 227 229 222 221 227 228 227 229 234 239 242 241 238 235 237 239 238 239 240 239 239 240 241 242 243 246 248 249 251 252 251 246 243 243 246 250 253 255 260 269 275 277 277 273 262 249 243 243 246 255 268 280 288 290 287 292
200 201 201 205 206 202 203 218 231 230 226 226 230 233 234 236 240 242 239 237 235 236 237 237 238 238 239 243 246 245 243 242 244 246 248 249 251 250 248 245 244 245 249 253 254 253 260 270 276 275 271 261 248 240 239 243 251 261 271 278 281 284 293
200 199 205 210 208 209 212 218 229 234 232 229 229 234 237 238 239 239 237 235 234 234 235 235 234 235 238 242 245 245 243 240 239 241 242 244 247 248 248 248 247 247 249 250 250 250 255 266 272 273 270 260 247 239 237 239 246 254 263 270 275 283 294
207 205 212 215 210 211 215 220 228 237 238 234 230 232 235 236 238 238 237 236 234 234 233 234 237 241 244 244 244 245 242 239 237 238 239 242 245 247 247 247 248 249 249 249 249 250 253 261 267 269 268 258 245 239 237 237 241 248 256 264 273 284 294
222 219 220 223 221 218 216 220 229 235 238 237 234 233 233 235 237 237 238 238 237 236 236 238 242 244 246 246 246 245 242 240 239 239 240 242 245 248 248 247 248 249 250 250 249 249 251 257 262 265 266 257 245 240 238 237 239 243 250 261 273 285 293
228 232 229 222 220 219 216 221 232 234 237 237 234 233 232 232 234 235 237 239 240 241 242 244 245 244 247 249 248 246 243 242 242 242 243 243 244 246 246 246 247 248 249 250 250 249 250 254 257 260 262 255 244 240 240 239 239 240 248 261 274 285 290
225 231 232 218 209 212 212 220 236 237 236 236 234 231 231 232 234 236 239 240 242 245 248 250 247 244 246 249 247 246 246 245 247 249 250 249 248 248 247 246 245 245 247 249 249 249 249 252 254 256 259 252 243 242 243 242 241 241 249 263 275 283 286
221 220 223 217 209 209 211 219 237 238 232 232 231 228 229 231 234 238 241 242 243 248 252 254 249 242 244 248 248 248 250 253 255 256 256 256 255 253 250 248 245 244 245 245 247 247 247 250 251 253 255 248 241 244 246 244 244 244 251 264 273 277 279
218 218 220 219 213 212 214 216 228 236 230 225 226 227 229 231 233 236 239 241 244 248 251 252 246 240 242 246 245 246 252 258 262 263 264 264 263 260 255 251 248 246 244 243 244 244 245 246 248 251 251 243 241 245 248 247 247 249 254 263 267 268 274
218 219 221 222 219 218 218 216 223 235 236 227 223 226 229 232 234 238 241 244 245 246 247 247 243 238 239 242 242 244 252 260 265 269 271 269 271 271 265 258 253 250 247 245 243 241 241 242 245 249 246 240 241 245 246 247 249 253 259 261 259 262 273
218 219 220 221 224 224 221 220 224 232 238 236 230 229 231 233 237 240 243 243 242 240 241 242 239 234 234 238 240 242 250 259 268 276 280 279 277 276 275 270 262 257 253 248 241 239 239 240 243 244 239 237 240 243 246 248 252 259 262 258 255 262 272
224 223 221 221 227 227 222 221 225 229 233 236 238 238 236 235 236 239 240 240 239 238 237 238 237 233 231 234 237 239 248 261 270 275 278 280 279 277 278 277 271 265 260 250 242 240 241 241 242 241 235 235 239 242 245 248 253 260 260 255 257 264 268
233 229 225 224 228 228 222 220 225 229 230 234 240 242 239 236 234 235 237 237 236 235 235 235 237 235 232 234 235 239 250 261 267 269 271 275 279 281 281 279 276 271 265 257 250 249 248 244 242 240 236 235 238 241 244 247 255 259 255 253 258 262 266
234 230 227 225 227 230 225 219 222 228 232 237 241 242 242 241 237 235 237 238 239 239 237 236 236 235 232 234 236 241 252 259 263 266 269 272 278 283 284 282 279 275 271 266 261 258 257 252 245 243 242 240 240 242 243 247 253 253 250 252 258 262 268
230 228 226 222 224 230 228 221 220 226 232 236 238 240 241 242 241 240 240 240 242 242 241 240 238 236 236 238 239 244 251 256 261 265 268 271 275 280 283 285 283 280 277 273 268 264 264 261 255 251 249 247 246 244 242 245 249 247 248 254 259 265 273
229 227 225 222 223 227 227 223 222 224 229 233 234 234 236 237 239 240 238 237 238 238 239 242 242 241 243 245 244 247 251 255 260 264 267 270 272 276 281 284 285 284 281 278 274 270 268 266 263 259 257 255 252 246 240 242 244 244 249 257 263 270 279
230 230 228 227 227 227 225 224 223 225 230 234 233 230 234 240 240 239 237 236 236 238 239 243 244 243 245 247 247 248 252 255 257 261 264 267 270 273 277 280 283 286 286 284 281 275 271 270 267 263 260 259 257 250 243 241 242 244 251 259 265 272 279
229 230 231 231 231 230 226 223 221 223 230 237 238 235 239 244 243 241 242 241 239 239 238 240 243 243 243 246 247 248 251 254 255 259 262 265 268 270 272 276 281 285 287 286 284 281 277 274 270 264 261 261 260 254 246 242 242 246 252 259 265 271 277
231 230 231 232 233 232 227 222 220 220 225 233 239 240 241 241 239 237 238 239 239 239 238 239 240 240 240 244 247 248 249 252 255 259 260 261 264 266 268 273 277 281 283 284 286 288 286 280 274 267 262 261 260 255 247 242 242 245 252 257 263 269 273
236 235 234 233 233 231 227 224 223 222 221 224 230 235 234 231 232 233 233 235 239 242 244 245 246 245 244 244 248 250 250 251 254 256 256 256 260 263 265 267 272 277 280 282 285 289 289 283 277 270 263 260 259 256 249 243 241 244 250 254 260 266 270
238 238 238 238 236 234 230 227 227 229 227 223 225 230 229 225 227 231 232 234 239 242 246 250 252 251 250 250 253 255 256 256 256 256 256 256 259 264 266 266 267 272 277 279 282 285 286 284 281 275 266 261 260 258 253 245 242 244 248 252 257 262 266
235 237 239 239 239 237 234 230 230 234 236 234 233 233 230 226 227 231 233 234 239 244 247 250 253 253 253 255 256 257 260 263 262 260 258 257 259 264 266 266 266 268 272 275 277 280 283 284 282 277 268 261 261 261 257 247 242 245 248 251 256 260 264
232 235 236 237 237 238 238 235 233 234 238 240 241 239 235 232 232 235 238 238 241 245 246 249 254 257 258 257 254 252 254 257 258 255 250 251 257 261 261 262 263 266 269 271 272 275 278 278 276 273 267 262 261 261 257 248 243 245 248 250 253 258 261
234 235 236 236 235 236 239 239 236 236 238 240 242 243 242 240 240 241 242 243 246 248 249 251 257 260 260 258 254 253 254 256 259 258 253 254 261 262 257 254 258 262 265 267 268 270 272 273 273 272 268 263 259 258 256 250 244 244 248 249 252 257 260
237 237 237 236 235 235 238 240 239 237 238 240 242 244 245 246 247 247 247 248 251 254 256 256 258 260 259 258 257 259 262 265 267 267 267 267 269 268 259 250 252 258 260 262 264 265 267 270 270 270 269 263 258 257 257 252 245 243 246 249 252 256 259
237 238 238 236 235 234 235 239 242 241 240 241 244 246 248 250 251 252 253 253 254 257 260 261 260 260 259 258 260 262 265 268 270 271 272 272 272 271 264 250 249 255 257 257 258 258 261 266 267 267 267 264 259 257 256 252 246 243 245 249 251 255 259
237 236 237 237 235 234 232 235 240 242 242 243 244 246 247 249 251 253 256 257 258 260 262 262 261 261 261 260 261 262 263 266 268 270 271 270 270 274 270 255 247 251 256 257 257 256 257 261 264 264 264 263 261 257 253 250 246 243 245 248 251 255 258
237 235 236 236 236 236 234 233 237 241 242 243 243 244 246 248 250 252 254 257 260 260 259 259 259 262 264 263 263 264 265 266 268 270 271 271 272 276 275 263 250 248 251 255 257 257 256 258 261 262 262 263 261 256 252 251 248 245 247 250 253 256 258
236 235 236 237 237 237 237 235 235 238 240 242 244 245 246 247 249 251 253 256 258 258 257 258 260 262 264 264 265 266 267 267 268 270 271 272 274 275 277 273 265 258 255 255 255 255 255 257 257 256 258 262 262 258 255 254 250 248 249 252 255 258 260
237 235 236 237 237 239 240 239 237 238 240 242 244 246 247 249 250 252 255 256 258 259 260 262 263 264 264 264 263 264 266 266 266 267 268 270 272 274 274 274 273 272 270 267 264 262 262 263 261 258 257 258 259 258 256 255 252 250 251 254 255 257 261
239 238 237 237 238 240 242 242 241 241 241 243 245 246 249 250 252 253 255 257 259 261 262 263 264 265 265 263 260 260 262 263 264 265 266 267 270 271 270 270 271 273 274 273 269 266 266 267 268 267 264 259 256 256 255 254 252 252 253 254 255 257 260
238 240 240 239 239 240 242 243 243 243 244 245 247 249 250 252 253 254 255 257 259 260 262 263 265 267 268 267 264 264 266 266 266 266 266 266 268 269 268 267 268 269 270 269 268 268 268 269 270 270 269 265 259 254 253 253 253 254 255 256 257 258 260
239 239 240 240 241 241 241 242 244 246 247 248 248 249 250 252 253 255 258 260 262 263 264 265 267 269 271 271 270 270 271 272 272 272 270 268 267 268 268 267 267 267 268 268 268 269 270 270 269 268 269 269 261 252 251 253 253 254 256 258 258 258 258
242 239 239 243 246 246 244 244 245 247 248 249 250 249 250 252 254 257 259 261 262 263 264 264 265 266 267 267 267 267 267 268 269 270 270 269 269 269 269 269 268 269 269 268 267 267 267 267 266 264 263 263 258 252 251 252 251 250 252 254 254 256 256
242 241 243 248 249 249 250 250 248 246 246 248 250 251 253 255 256 257 259 260 261 262 262 262 263 263 263 264 264 263 263 264 264 265 266 267 267 268 267 267 266 266 266 266 266 267 267 267 266 264 260 258 256 254 252 252 251 250 249 250 252 254 255
240 243 247 250 250 249 251 253 252 248 247 250 252 254 255 256 256 258 259 261 262 263 264 265 265 265 265 265 264 264 264 264 263 263 263 264 264 264 264 263 263 262 262 262 263 263 264 264 264 264 263 261 258 255 253 254 255 254 251 251 252 253 254
240 245 247 249 250 250 251 254 253 251 252 255 257 257 257 257 258 258 260 261 263 265 267 269 270 271 271 271 271 270 269 266 263 262 261 261 261 261 260 260 260 260 260 260 259 259 260 260 260 261 261 260 258 256 256 256 257 255 252 253 255 254 253
Height
5873 5875 5876 5877 5879 5881 5884 5885 5887 5888 5890 5891 5893 5894 5895 5896 5898 5900 5901 5902 5903 5904 5905 5906 5907 5908 5909 5909 5910 5910 5911 5911 5912 5913 5914 5914 5914 5915 5916 5916 5917 5917 5918 5918 5918 5919 5919 5919 5919 5919 5919 5919 5919 5920 5920 5920 5920 5920 5920 5920 5920 5920 5920
5872 5873 5875 5876 5877 5879 5881 5883 5885 5886 5888 5889 5891 5892 5893 5895 5896 5898 5900 5901 5901 5902 5903 5904 5905 5906 5907 5907 5908 5908 5909 5909 5910 5911 5912 5912 5913 5913 5914 5914 5915 5915 5916 5916 5916 5917 5917 5917 5917 5917 5917 5917 5918 5918 5919 5919 5919 5919 5919 5919 5919 5919 5919
5870 5873 5875 5876 5877 5878 5879 5881 5882 5883 5885 5887 5888 5890 5892 5893 5895 5897 5897 5898 5899 5900 5901 5903 5904 5904 5905 5905 5906 5906 5906 5907 5908 5908 5909 5910 5911 5911 5912 5912 5913 5913 5913 5914 5914 5915 5915 5916 5916 5916 5915 5915 5916 5916 5917 5917 5917 5917 5918 5918 5918 5918 5918
5868 5871 5873 5874 5876 5877 5877 5878 5879 5881 5882 5884 5886 5888 5890 5892 5893 5894 5895 5895 5896 5897 5899 5901 5901 5902 5903 5903 5903 5904 5904 5904 5905 5906 5906 5907 5908 5909 5910 5911 5911 5911 5912 5912 5912 5913 5913 5914 5914 5914 5914 5914 5914 5915 5915 5915 5915 5916 5916 5917 5917 5917 5917
5867 5868 5870 5871 5872 5874 5875 5876 5877 5878 5879 5881 5883 5885 5887 5889 5890 5891 5892 5893 5894 5895 5897 5898 5898 5899 5900 5901 5901 5901 5901 5902 5902 5903 5904 5904 5905 5906 5908 5908 5909 5909 5909 5910 5910 5911 5911 5912 5913 5912 5912 5912 5912 5913 5913 5913 5914 5914 5915 5915 5916 5916 5916
5865 5866 5867 5869 5870 5871 5873 5874 5875 5875 5876 5878 5880 5882 5884 5885 5886 5888 5889 5890 5891 5893 5894 5895 5897 5898 5898 5898 5898 5898 5899 5899 5900 5900 5901 5902 5903 5904 5905 5906 5906 5907 5907 5907 5908 5909 5909 5910 5910 5910 5910 5910 5911 5911 5911 5912 5912 5912 5913 5914 5914 5914 5914
5862 5864 5865 5866 5868 5869 5871 5872 5872 5873 5874 5875 5876 5878 5880 5881 5883 5885 5886 5887 5889 5890 5891 5893 5895 5896 5896 5896 5896 5896 5896 5897 5897 5898 5898 5899 5900 5901 5902 5903 5903 5904 5904 5905 5906 5906 5907 5907 5908 5908 5908 5909 5909 5909 5910 5910 5910 5911 5911 5912 5913 5912 5912
5858 5861 5862 5864 5865 5866 5868 5869 5870 5870 5871 5871 5872 5874 5876 5878 5880 5882 5883 5885 5886 5887 5889 5891 5893 5893 5893 5893 5893 5894 5894 5894 5895 5895 5896 5896 5897 5898 5899 5899 5900 5901 5901 5902 5903 5904 5904 5905 5905 5905 5906 5907 5907 5908 5908 5908 5909 5909 5909 5910 5910 5910 5910
5854 5856 5858 5860 5861 5863 5865 5866 5867 5867 5867 5868 5869 5871 5873 5875 5877 5879 5881 5882 5883 5884 5886 5888 5890 5890 5890 5891 5891 5892 5892 5892 5893 5893 5894 5894 5895 5895 5896 5896 5897 5897 5898 5899 5900 5901 5902 5902 5902 5903 5904 5905 5906 5906 5907 5907 5907 5907 5907 5908 5908 5908 5908
5851 5853 5855 5856 5858 5860 5861 5862 5863 5864 5864 5865 5866 5868 5870 5872 5874 5876 5878 5879 5881 5882 5883 5885 5886 5887 5887 5888 5889 5889 5890 5891 5891 5892 5892 5892 5892 5892 5893 5893 5893 5894 5895 5896 5897 5898 5899 5899 5899 5900 5901 5903 5904 5905 5905 5905 5906 5905 5906 5906 5906 5906 5906
5847 5849 5851 5853 5855 5857 5858 5859 5860 5860 5861 5862 5864 5866 5868 5870 5872 5873 5875 5876 5878 5880 5880 5881 5882 5884 5885 5886 5887 5887 5888 5889 5889 5890 5890 5890 5890 5890 5890 5890 5890 5891 5892 5893 5894 5895 5896 5896 5897 5898 5899 5900 5901 5902 5903 5903 5904 5904 5904 5904 5904 5904 5904
5844 5846 5848 5850 5852 5854 5855 5857 5858 5858 5859 5860 5861 5863 5865 5867 5869 5870 5872 5873 5875 5877 5877 5878 5879 5881 5883 5883 5884 5885 5886 5887 5887 5888 5888 5888 5888 5888 5888 5888 5888 5888 5889 5890 5891 5892 5893 5894 5895 5895 5897 5898 5899 5900 5901 5902 5902 5902 5902 5901 5901 5901 5901
5841 5843 5845 5847 5849 5851 5853 5855 5856 5856 5857 5858 5859 5861 5863 5865 5866 5867 5869 5871 5873 5874 5874 5875 5876 5878 5880 5881 5882 5883 5884 5885 5885 5886 5886 5887 5887 5886 5886 5887 5887 5887 5887 5888 5889 5890 5891 5891 5892 5893 5894 5895 5896 5898 5899 5900 5900 5900 5900 5899 5899 5899 5899
5838 5840 5842 5844 5846 5848 5850 5852 5853 5854 5855 5856 5857 5858 5860 5862 5863 5865 5866 5868 5870 5871 5872 5873 5874 5876 5877 5878 5879 5881 5882 5883 5883 5884 5884 5885 5885 5885 5885 5885 5885 5885 5885 5886 5887 5888 5889 5890 5890 5891 5892 5893 5894 5895 5896 5897 5898 5898 5898 5897 5897 5897 5897
5835 5837 5839 5841 5843 5845 5847 5850 5851 5852 5853 5854 5855 5856 5858 5859 5861 5862 5864 5865 5867 5868 5870 5871 5872 5873 5875 5876 5877 5879 5880 5880 5881 5882 5882 5883 5883 5883 5883 5883 5883 5883 5883 5884 5885 5886 5886 5887 5888 5888 5889 5890 5891 5893 5894 5895 5896 5896 5895 5895 5895 5895 5895
5833 5834 5836 5838 5840 5842 5845 5847 5849 5851 5852 5853 5853 5854 5855 5856 5858 5860 5862 5863 5864 5866 5868 5869 5870 5871 5872 5874 5876 5876 5877 5877 5878 5879 5880 5881 5881 5881 5881 5881 5881 5880 5881 5882 5883 5884 5884 5885 5886 5887 5887 5888 5889 5890 5891 5892 5893 5893 5892 5892 5892 5892 5892
5830 5831 5833 5835 5836 5838 5841 5843 5845 5848 5849 5850 5851 5852 5853 5854 5856 5857 5859 5860 5862 5864 5865 5866 5867 5869 5870 5872 5873 5874 5874 5875 5876 5876 5877 5878 5879 5879 5879 5878 5878 5878 5878 5879 5880 5881 5881 5882 5883 5885 5885 5886 5886 5887 5888 5889 5889 5889 5889 5889 5889 5889 5889
5827 5828 5830 5831 5833 5835 5837 5839 5842 5844 5846 5848 5849 5851 5852 5853 5853 5855 5856 5858 5860 5861 5862 5863 5865 5866 5868 5869 5870 5871 5872 5872 5873 5874 5875 5876 5876 5876 5876 5875 5876 5876 5876 5876 5877 5878 5879 5879 5881 5882 5882 5883 5883 5884 5885 5885 5885 5886 5886 5886 5886 5886 5886
5823 5825 5827 5829 5830 5832 5834 5836 5838 5841 5843 5845 5846 5848 5850 5851 5851 5852 5854 5856 5857 5859 5859 5861 5862 5863 5865 5866 5867 5868 5869 5870 5871 5872 5872 5873 5873 5873 5873 5873 5873 5874 5874 5873 5874 5875 5876 5877 5877 5878 5879 5879 5880 5881 5881 5881 5882 5882 5883 5883 5883 5883 5883
5818 5821 5824 5825 5827 5829 5831 5833 5835 5837 5840 5841 5843 5845 5847 5847 5848 5850 5852 5853 5854 5855 5856 5857 5859 5860 5862 5863 5864 5865 5866 5867 5868 5869 5870 5870 5870 5869 5870 5870 5870 5871 5871 5871 5871 5871 5873 5873 5874 5874 5875 5876 5877 5877 5878 5878 5879 5880 5880 5880 5880 5880 5880
5814 5816 5819 5821 5824 5826 5828 5830 5832 5834 5836 5838 5839 5841 5842 5843 5845 5847 5848 5849 5850 5851 5852 5854 5856 5857 5858 5859 5860 5861 5863 5863 5865 5866 5866 5866 5866 5866 5866 5867 5868 5868 5868 5868 5868 5868 5869 5870 5870 5871 5872 5873 5874 5874 5874 5875 5876 5877 5877 5877 5877 5877 5877
5810 5812 5815 5817 5820 5822 5824 5827 5829 5831 5833 5834 5835 5836 5837 5840 5841 5842 5844 5845 5846 5847 5849 5851 5852 5854 5855 5856 5857 5858 5859 5860 5861 5862 5862 5862 5862 5862 5863 5863 5864 5865 5864 5864 5865 5865 5866 5866 5867 5868 5869 5869 5870 5871 5871 5872 5873 5873 5874 5874 5874 5873 5873
5807 5809 5811 5813 5815 5818 5821 5823 5826 5828 5830 5831 5832 5832 5834 5836 5837 5837 5839 5840 5841 5843 5845 5846 5848 5849 5851 5852 5853 5854 5855 5856 5857 5857 5858 5858 5858 5859 5859 5860 5861 5861 5861 5861 5861 5862 5862 5863 5863 5864 5865 5865 5866 5867 5868 5869 5870 5870 5870 5870 5869 5869 5869
5803 5805 5807 5809 5811 5814 5816 5819 5822 5824 5826 5827 5828 5830 5831 5832 5833 5833 5834 5836 5837 5839 5840 5842 5844 5845 5846 5847 5848 5850 5850 5851 5851 5852 5853 5853 5854 5854 5855 5856 5857 5857 5857 5857 5858 5858 5859 5859 5859 5859 5860 5861 5862 5863 5864 5865 5866 5866 5866 5866 5865 5864 5865
5799 5802 5803 5805 5807 5809 5811 5814 5817 5819 5821 5822 5824 5826 5827 5828 5829 5830 5831 5833 5834 5835 5836 5838 5840 5842 5842 5842 5843 5844 5845 5846 5846 5846 5847 5849 5849 5849 5849 5850 5851 5852 5852 5853 5853 5854 5854 5854 5854 5855 5856 5857 5858 5858 5859 5860 5861 5862 5861 5861 5860 5860 5861
5795 5797 5799 5801 5803 5805 5807 5809 5811 5814 5816 5817 5819 5821 5822 5824 5825 5826 5828 5830 5830 5831 5833 5835 5837 5838 5838 5838 5838 5839 5840 5841 5841 5842 5843 5844 5844 5844 5844 5845 5846 5847 5847 5848 5849 5849 5849 5849 5850 5851 5851 5852 5853 5853 5853 5855 5856 5857 5857 5856 5855 5855 5857
5790 5792 5794 5797 5799 5801 5802 5804 5805 5808 5810 5812 5814 5816 5818 5819 5821 5822 5824 5825 5826 5828 5830 5832 5833 5834 5834 5834 5835 5835 5836 5836 5837 5837 5838 5839 5839 5838 5838 5839 5841 5842 5842 5842 5843 5843 5844 5844 5845 5846 5846 5847 5847 5848 5849 5850 5851 5851 5851 5850 5850 5850 5852
5785 5787 5789 5791 5794 5796 5798 5799 5800 5802 5805 5807 5809 5811 5813 5814 5816 5817 5819 5820 5822 5825 5827 5827 5828 5828 5829 5829 5830 5830 5832 5833 5832 5832 5832 5833 5834 5833 5834 5834 5835 5836 5837 5837 5837 5838 5838 5839 5840 5840 5841 5841 5841 5842 5844 5844 5845 5845 5845 5844 5844 5846 5847
5780 5782 5784 5786 5788 5791 5793 5795 5795 5797 5799 5802 5804 5806 5807 5809 5811 5812 5814 5816 5818 5820 5820 5821 5821 5822 5822 5823 5824 5825 5826 5828 5828 5827 5827 5829 5829 5829 5830 5830 5830 5831 5831 5831 5832 5832 5833 5834 5834 5834 5835 5835 5836 5837 5838 5838 5838 5839 5839 5838 5840 5841 5843
5774 5776 5779 5781 5783 5785 5788 5790 5791 5792 5794 5796 5799 5800 5802 5804 5806 5808 5809 5811 5812 5813 5813 5814 5816 5816 5816 5817 5818 5819 5820 5822 5823 5821 5821 5823 5823 5824 5824 5824 5825 5826 5826 5826 5826 5827 5827 5828 5828 5828 5829 5830 5830 5831 5832 5832 5833 5833 5833 5833 5835 5837 5838
5768 5771 5774 5776 5779 5781 5783 5785 5786 5788 5789 5791 5793 5795 5798 5800 5801 5803 5804 5805 5806 5807 5808 5809 5810 5810 5811 5812 5813 5813 5814 5815 5816 5816 5816 5816 5817 5817 5818 5818 5819 5819 5819 5820 5820 5820 5821 5821 5822 5823 5823 5824 5825 5826 5827 5827 5828 5827 5826 5827 5830 5831 5833
5763 5767 5770 5772 5775 5777 5779 5780 5782 5783 5785 5787 5789 5790 5793 5794 5796 5798 5799 5800 5800 5801 5802 5803 5803 5804 5805 5806 5807 5808 5808 5809 5810 5810 5810 5810 5810 5811 5811 5812 5812 5812 5812 5812 5813 5814 5815 5815 5816 5817 5817 5818 5820 5821 5821 5821 5821 5819 5819 5820 5823 5825 5827
5759 5762 5765 5768 5771 5773 5775 5777 5778 5779 5781 5782 5784 5786 5788 5789 5791 5792 5793 5794 5794 5795 5796 5796 5797 5798 5799 5800 5801 5802 5802 5802 5803 5804 5804 5804 5803 5803 5804 5805 5805 5805 5806 5806 5806 5808 5808 5809 5810 5811 5810 5811 5813 5814 5814 5814 5812 5811 5812 5814 5816 5818 5820
5754 5757 5760 5764 5767 5769 5772 5773 5774 5775 5776 5778 5779 5781 5782 5783 5785 5785 5786 5787 5788 5788 5789 5790 5790 5792 5793 5793 5794 5795 5795 5795 5796 5796 5797 5796 5796 5796 5796 5797 5798 5799 5799 5801 5801 5801 5802 5802 5802 5803 5803 5804 5805 5806 5806 5805 5804 5804 5806 5808 5810 5811 5812
5750 5753 5756 5759 5762 5765 5767 5769 5770 5771 5772 5773 5775 5776 5777 5778 5779 5779 5780 5781 5781 5782 5783 5784 5785 5786 5786 5787 5787 5788 5788 5788 5788 5788 5788 5788 5788 5788 5789 5789 5790 5790 5791 5793 5794 5794 5795 5794 5794 5794 5795 5795 5795 5797 5797 5795 5794 5795 5797 5799 5801 5802 5802
5744 5747 5751 5754 5756 5758 5761 5763 5765 5766 5767 5769 5770 5771 5772 5773 5773 5774 5774 5775 5775 5776 5776 5777 5778 5779 5780 5780 5780 5780 5780 5781 5781 5781 5780 5780 5779 5779 5779 5780 5780 5780 5780 5782 5783 5784 5786 5787 5786 5786 5785 5785 5788 5790 5787 5783 5782 5784 5785 5788 5792 5794 5794
5739 5743 5746 5747 5749 5752 5754 5756 5759 5761 5762 5764 5765 5766 5767 5767 5767 5768 5768 5768 5768 5769 5769 5770 5771 5772 5772 5773 5773 5773 5773 5773 5773 5773 5772 5771 5771 5770 5769 5769 5769 5770 5771 5772 5773 5774 5775 5777 5777 5777 5776 5778 5781 5780 5775 5773 5774 5774 5775 5778 5782 5784 5786
5735 5738 5740 5742 5744 5746 5748 5750 5753 5754 5756 5758 5759 5760 5761 5761 5761 5761 5761 5761 5761 5762 5762 5763 5763 5764 5764 5765 5765 5765 5765 5765 5765 5764 5763 5761 5760 5759 5759 5759 5760 5761 5762 5762 5763 5763 5765 5766 5767 5768 5768 5769 5770 5768 5766 5768 5770 5768 5767 5770 5773 5775 5778